This demonstration page uses our WeatherBlox Daily Observations layout. Learn more.

Left ArrowRight Arrow

39.08367, -84.50855

Hourly Observations for November 18, 2015

Temp ( °F °C ) Dew Point ( °F °C ) Humidity (%) Winds ( mph kmh ) Pressure ( in mb ) Visibility ( mi km ) Precip ( " mm )
12:53 am 00:53 Clear 61 16.1 40 4.4 46 46 SSE 9 15 29.98 1015 10 16 0.00 0.00
1:53 am 01:53 Clear 61 16.1 41 5 48 48 SSE 5 7 29.97 1015 10 16 0.00 0.00
2:53 am 02:53 Clear 61 16.1 42 5.6 50 50 SE 9 15 29.96 1015 10 16 0.00 0.00
3:53 am 03:53 Clear 61 16.1 43 6.1 52 52 SSE 10 17 29.95 1014 10 16 0.00 0.00
4:53 am 04:53 Clear 61 16.1 43 6.1 52 52 SSE 10 17 29.93 1014 10 16 0.00 0.00
5:53 am 05:53 Clear 61 16.1 42 5.6 50 50 SE 9 15 29.93 1014 10 16 0.00 0.00
6:53 am 06:53 Clear 61 16.1 42 5.6 50 50 SE 9 15 29.91 1013 10 16 0.00 0.00
7:53 am 07:53 Sunny 61 16.1 42 5.6 50 50 SE 10 17 29.89 1012 10 16 0.00 0.00
8:53 am 08:53 Mostly Sunny 62 16.7 45 7.2 54 54 SSE 9 15 29.88 1012 10 16 0.00 0.00
9:53 am 09:53 Mostly Cloudy 63 17.2 47 8.3 56 56 SSE 8 13 29.88 1012 10 16 0.00 0.00
10:53 am 10:53 Cloudy 64 17.8 49 9.4 58 58 SSE 14 22 29.85 1011 10 16 0.00 0.00
11:53 am 11:53 Mostly Cloudy 65 18.3 51 10.6 61 61 SE 12 19 29.81 1009 10 16 0.00 0.00
12:53 pm 12:53 Cloudy with Light Rain 63 17.2 55 12.8 76 76 W 15 24 29.83 1010 10 16 0.01 0.25
1:03 pm 13:03 Cloudy with Rain 61 16 57 14 88 88 W 18 30 29.85 1011 4 6 0.00 0.00
1:53 pm 13:53 Cloudy with Heavy Rain 59 15 58 14.4 96 96 SSE 10 17 29.83 1010 3 5 0.16 4.06
2:33 pm 14:33 Cloudy with Heavy Rain 60 15.6 59 15 96 96 S 6 9 29.83 1010 2 3 0.14 3.56
2:47 pm 14:47 Cloudy with Heavy Rain 61 16 61 16 100 100 S 9 15 29.83 1010 1 1 0.27 6.86
2:53 pm 14:53 Cloudy with Heavy Rain 60 15.6 60 15.6 100 100 S 8 13 29.83 1010 1 2 0.32 8.13
3:11 pm 15:11 Cloudy with Rain 60 15.6 60 15.6 100 100 SSW 5 7 29.83 1010 3 5 0.08 2.03
3:53 pm 15:53 Cloudy with Light Rain 61 16.1 60 15.6 97 97 Calm 29.81 1009 10 16 0.11 2.79
4:53 pm 16:53 Cloudy with Light Rain 62 16.7 60 15.6 93 93 VRB 7 11 29.75 1008 10 16 0.02 0.51
5:53 pm 17:53 Mostly Cloudy 63 17 N/A N/A SSE 8 13 29.73 1007 10 16 0.01 0.25
6:53 pm 18:53 Cloudy with Light Rain 63 17 N/A N/A S 10 17 29.78 1009 10 16 0.00 0.03
7:53 pm 19:53 Cloudy with Light Rain 62 16.7 59 15 90 90 VRB 7 11 29.76 1008 10 16 0.00 0.03
8:53 pm 20:53 Cloudy with Light Rain 61 16.1 60 15.6 97 97 SSW 12 19 29.80 1009 6 10 0.01 0.25
9:53 pm 21:53 Mostly Cloudy 61 16.1 60 15.6 97 97 S 9 15 29.80 1009 10 16 0.02 0.51
10:53 pm 22:53 Clear 60 15.6 58 14.4 93 93 SSW 8 13 29.81 1010 10 16 0.00 0.00
11:53 pm 23:53 Partly Cloudy 58 14.4 52 11.1 81 81 SSW 12 19 29.84 1011 10 16 0.00 0.00

Powered by AerisWeather